Wind_Speed
22 22 23 23 24 24 24 25 26 27 28 29 30 30 31 32 32 34 35 36 36 37 37 37 37 37 37 36 36 35 35 34 34 34 33 32 30 29 28 27 26 25 23
24 24 25 25 26 26 26 27 28 28 29 31 32 33 34 34 35 36 37 37 38 39 39 39 39 39 39 38 38 37 37 36 36 35 35 34 33 32 31 30 28 27 26
26 26 27 27 28 28 28 29 30 31 32 33 35 36 36 37 38 39 39 40 40 41 41 41 41 41 41 40 40 39 39 38 38 37 37 36 36 35 34 33 31 30 29
28 28 28 29 30 30 31 32 33 34 35 37 38 39 39 40 41 41 41 42 42 43 43 43 43 43 42 42 41 41 41 40 40 39 39 38 38 37 36 35 34 33 32
30 30 30 31 32 33 33 34 35 37 38 39 41 41 42 42 43 43 43 44 44 44 44 45 45 44 44 43 43 42 42 41 41 41 41 41 40 40 39 38 37 36 35
33 33 33 33 34 35 36 37 38 39 40 42 43 43 44 44 44 44 44 45 45 45 46 46 46 46 46 45 45 44 44 43 43 43 43 43 42 41 41 40 39 38 37
35 35 35 36 37 38 39 40 41 41 42 44 45 45 44 45 44 45 45 45 45 45 46 47 47 47 47 47 47 46 46 45 44 45 45 45 44 43 43 42 41 41 40
37 37 37 38 39 40 41 42 43 43 44 45 46 46 45 44 44 45 45 45 45 46 46 47 48 49 49 49 49 48 49 48 46 47 47 47 46 46 45 44 44 43 42
39 39 40 41 42 42 43 44 45 45 46 46 47 47 47 46 44 43 43 44 45 46 47 48 49 50 50 51 51 51 51 51 51 50 49 48 48 48 47 47 46 45 44
41 41 42 43 43 44 44 45 46 47 48 47 47 47 47 47 46 45 44 44 44 45 47 48 49 49 50 51 52 53 53 52 52 52 51 50 50 50 49 49 48 46 45
43 44 44 44 44 45 45 46 47 48 48 48 47 47 46 46 46 46 44 43 44 46 47 48 48 49 49 50 51 52 52 52 52 52 52 52 51 49 50 51 49 47 45
45 45 45 45 45 46 46 47 48 48 48 48 47 47 46 46 46 46 44 44 45 45 46 46 47 48 48 49 49 50 50 50 51 51 51 51 50 49 49 49 48 48 47
46 46 46 46 46 47 47 48 48 48 47 47 46 45 45 45 45 45 45 44 44 44 45 45 46 47 47 47 47 47 46 47 47 47 47 48 48 47 46 46 46 47 47
47 47 47 47 47 47 48 48 47 46 45 45 44 44 44 44 44 44 44 44 44 44 44 44 44 45 45 45 44 43 41 41 40 41 42 44 45 45 44 44 45 46 46
47 47 47 47 47 48 47 46 45 44 43 43 43 43 43 43 43 43 43 44 44 43 43 42 43 42 42 41 40 39 37 36 35 35 36 40 42 42 42 42 42 43 45
47 47 47 47 48 47 45 44 43 42 42 42 42 42 42 42 42 42 43 43 43 42 41 40 40 40 39 38 37 35 34 32 31 31 32 34 36 37 38 39 40 41 42
46 46 46 46 45 44 43 42 42 41 41 41 41 41 41 41 41 42 42 41 41 40 39 39 38 37 36 35 34 32 31 30 30 29 30 31 32 33 36 38 38 39 41
46 45 45 44 42 42 41 40 40 40 40 40 40 40 40 40 40 40 40 39 39 38 37 37 36 35 34 32 31 30 28 28 29 28 29 30 31 31 33 35 37 38 40
44 43 42 41 40 39 39 38 38 38 38 38 38 38 38 39 39 39 38 38 37 37 36 35 35 34 32 31 30 29 28 27 27 28 28 29 30 31 33 35 37 39 40
41 40 39 38 38 37 37 36 36 36 36 36 37 37 37 38 37 37 37 37 36 36 36 35 34 33 32 31 30 29 29 29 29 29 29 30 31 33 35 36 37 39 40
38 37 37 36 35 34 34 34 34 34 35 35 35 36 36 36 36 36 36 36 36 36 35 35 34 33 33 32 31 31 31 31 31 31 32 33 33 35 36 37 39 40 42
35 34 34 33 32 32 32 32 32 33 33 33 34 34 34 35 36 36 36 36 36 35 35 35 35 34 34 34 33 33 33 34 34 35 35 36 37 37 39 40 41 43 44
32 32 31 30 30 30 30 31 31 31 31 32 32 33 34 35 35 35 36 35 35 36 36 36 36 36 35 35 36 36 36 37 37 38 38 40 41 41 42 43 44 45 46
30 30 29 29 29 29 29 29 29 30 30 31 33 34 34 35 35 35 36 36 36 36 36 36 36 37 37 37 37 38 39 39 40 41 41 43 44 45 46 46 47 48 49
28 28 28 28 28 28 28 28 29 30 31 32 33 34 34 35 35 36 36 36 37 37 37 37 38 38 39 39 40 40 40 41 43 44 45 46 46 47 48 48 49 50 50
27 27 27 27 27 27 27 28 29 30 32 32 33 34 35 36 36 36 37 37 37 38 38 38 39 40 40 41 41 42 43 44 45 46 47 48 48 49 49 49 50 50 50
Wind_Direction
294 296 298 299 301 302 303 303 304 304 304 304 304 304 304 303 303 302 302 302 301 300 299 298 297 296 294 293 291 289 287 284 282 279 277 276 274 272 271 270 269 268 267
291 293 295 297 298 300 301 301 302 302 302 302 302 302 302 302 302 301 301 301 300 300 299 298 297 296 295 293 291 289 287 284 282 279 277 275 273 272 270 268 268 268 267
287 290 293 294 296 297 298 299 300 300 300 300 300 300 301 301 301 300 300 300 300 300 299 298 297 296 295 293 291 289 287 285 282 280 277 275 273 271 269 267 266 266 266
284 287 289 291 293 295 296 297 297 298 299 299 299 300 300 300 300 300 300 300 299 299 298 298 297 296 295 293 291 289 286 284 282 280 277 275 273 271 269 267 266 265 265
282 284 286 288 290 292 293 294 295 296 297 298 298 299 300 299 299 300 300 299 299 298 298 298 297 296 295 293 291 290 287 284 281 279 277 274 272 270 268 266 266 265 264
280 282 284 286 288 290 291 292 294 295 295 296 296 297 298 299 299 300 299 299 298 298 298 298 297 295 294 292 291 289 287 284 281 279 276 274 272 269 268 267 265 264 263
278 280 283 284 286 288 289 291 292 293 293 294 295 296 297 298 299 299 299 299 299 298 298 298 297 295 294 292 291 288 286 283 280 277 275 273 270 269 268 266 265 264 263
277 279 281 283 285 286 288 289 290 291 292 294 295 295 296 296 297 298 299 299 299 299 299 298 297 296 294 292 290 288 286 282 279 276 274 271 269 267 266 265 264 264 263
276 278 280 282 284 286 288 289 290 292 293 294 295 296 297 297 296 297 298 299 299 299 299 299 298 297 295 292 290 287 285 282 279 275 273 270 268 265 264 263 263 262 262
276 278 280 282 284 286 288 290 291 293 294 295 296 297 297 297 297 297 298 298 298 299 299 300 299 297 296 294 291 288 285 281 278 275 272 270 267 264 262 262 262 261 261
275 278 280 282 284 286 288 290 292 293 294 295 296 296 297 298 298 299 299 298 299 300 300 300 300 299 298 295 293 290 286 281 277 274 271 270 268 265 262 261 261 260 261
275 277 280 282 284 286 288 290 292 293 294 295 295 296 296 297 298 299 299 299 300 300 301 301 301 300 299 297 296 292 288 282 278 274 270 268 268 268 265 262 262 262 261
275 277 280 282 285 286 288 290 292 293 294 294 295 295 296 297 298 298 298 299 300 301 301 302 302 302 301 299 297 295 291 286 281 277 271 267 266 266 265 264 264 263 263
275 277 280 283 285 287 289 291 291 292 293 294 294 295 296 297 297 298 298 299 301 301 302 302 303 303 303 301 299 296 294 290 286 280 274 268 266 264 264 265 265 264 264
275 278 281 283 286 288 289 290 291 292 293 294 294 295 295 296 297 297 298 300 301 301 302 302 303 304 305 304 302 299 297 293 289 283 277 272 270 267 264 264 265 264 264
277 279 281 284 286 287 289 290 291 292 293 294 294 295 295 296 296 298 299 300 301 302 303 304 304 305 305 305 304 300 298 296 292 288 281 276 273 269 265 264 265 265 266
278 280 282 284 285 287 288 290 291 292 293 294 294 294 295 295 296 298 299 301 302 303 304 305 305 306 306 306 305 302 298 295 293 289 285 281 277 273 268 265 267 269 268
278 280 282 283 284 286 288 289 290 291 292 293 293 294 295 296 297 298 299 301 302 304 305 306 307 307 307 307 307 305 302 298 293 290 288 286 282 278 274 271 270 270 270
278 279 281 282 284 286 287 288 289 291 292 292 293 294 295 297 298 298 299 301 302 303 306 307 307 307 307 308 307 305 304 302 298 294 290 287 283 280 278 275 273 272 271
277 278 280 281 283 285 286 287 289 290 292 293 294 295 296 297 298 299 300 301 302 303 304 306 306 306 306 305 305 304 304 303 299 296 293 290 286 282 281 278 276 275 273
276 277 278 279 282 283 284 286 289 290 293 294 295 296 297 298 299 300 301 302 302 303 304 304 305 305 305 304 303 302 302 300 299 296 293 291 288 286 283 281 279 278 277
274 274 276 278 280 282 284 287 289 291 294 296 297 298 298 299 300 301 302 302 302 303 303 303 304 303 303 303 302 301 300 299 298 296 295 292 290 287 285 283 282 281 280
272 273 275 277 279 281 285 287 290 293 295 297 298 299 300 301 301 302 302 302 303 303 303 303 304 303 303 302 301 301 300 299 298 297 295 294 292 289 287 285 284 283 282
270 271 273 276 279 282 284 287 290 293 296 297 299 300 301 302 302 302 303 303 303 304 304 304 303 303 302 302 302 301 300 299 298 297 296 295 293 291 289 287 285 284 283
268 270 272 276 279 282 284 288 292 294 297 299 300 301 302 302 303 303 304 303 303 304 304 304 303 303 303 303 303 301 300 300 299 298 297 296 294 292 290 289 287 286 285
268 271 273 276 279 282 286 289 293 296 298 299 301 302 302 303 303 304 304 304 303 304 304 304 304 304 304 304 303 302 301 301 300 299 298 297 295 293 291 289 288 286 285
Height
5867 5867 5866 5865 5864 5864 5862 5861 5860 5858 5856 5854 5852 5850 5848 5846 5844 5841 5839 5836 5834 5831 5829 5827 5825 5823 5821 5819 5818 5816 5815 5814 5812 5811 5811 5810 5809 5809 5808 5808 5808 5808 5808
5863 5862 5862 5861 5860 5859 5858 5856 5855 5853 5851 5849 5846 5844 5842 5840 5838 5835 5833 5830 5827 5824 5822 5820 5818 5816 5814 5812 5811 5809 5808 5807 5806 5805 5804 5804 5803 5803 5802 5802 5802 5802 5802
5858 5858 5857 5856 5855 5854 5852 5851 5849 5847 5845 5843 5840 5838 5836 5833 5831 5828 5826 5823 5820 5817 5814 5812 5810 5808 5806 5804 5803 5801 5800 5799 5798 5797 5797 5796 5796 5796 5796 5796 5796 5796 5796
5853 5853 5852 5850 5849 5848 5846 5845 5843 5841 5838 5836 5833 5831 5829 5826 5824 5821 5818 5815 5812 5809 5806 5803 5801 5799 5797 5795 5794 5793 5791 5790 5790 5789 5788 5788 5788 5788 5788 5788 5789 5789 5790
5847 5847 5846 5845 5843 5842 5840 5838 5836 5834 5832 5829 5826 5824 5821 5819 5816 5813 5810 5806 5803 5800 5797 5794 5792 5790 5788 5786 5784 5783 5782 5781 5780 5779 5779 5779 5778 5779 5779 5780 5780 5781 5782
5841 5841 5840 5838 5837 5835 5833 5831 5829 5827 5825 5822 5819 5817 5814 5811 5808 5805 5801 5798 5795 5791 5788 5785 5782 5780 5778 5776 5774 5773 5771 5771 5770 5769 5768 5768 5768 5769 5769 5770 5771 5772 5773
5834 5834 5833 5831 5830 5828 5826 5824 5822 5820 5817 5814 5811 5809 5807 5803 5800 5796 5793 5790 5786 5782 5779 5776 5772 5770 5767 5765 5763 5761 5760 5759 5758 5758 5757 5757 5757 5758 5759 5760 5761 5762 5763
5827 5826 5825 5824 5822 5821 5819 5816 5814 5812 5809 5806 5803 5800 5799 5797 5792 5788 5784 5781 5777 5773 5770 5766 5762 5759 5756 5753 5751 5749 5747 5746 5745 5745 5745 5745 5745 5746 5747 5748 5749 5750 5752
5819 5818 5817 5816 5814 5812 5810 5808 5805 5803 5800 5797 5793 5790 5788 5787 5784 5781 5776 5772 5767 5763 5759 5755 5751 5747 5744 5741 5738 5736 5734 5732 5731 5731 5731 5731 5732 5733 5734 5735 5737 5738 5740
5811 5810 5809 5807 5805 5803 5801 5798 5795 5793 5790 5787 5784 5780 5777 5775 5772 5771 5769 5763 5758 5754 5749 5745 5740 5736 5732 5728 5725 5722 5720 5717 5717 5716 5716 5716 5717 5718 5720 5722 5723 5725 5727
5802 5801 5800 5798 5796 5794 5792 5789 5786 5783 5780 5777 5774 5771 5767 5764 5760 5758 5757 5754 5749 5744 5739 5734 5729 5724 5720 5715 5712 5708 5705 5702 5701 5701 5701 5701 5702 5703 5706 5708 5709 5712 5715
5793 5792 5790 5789 5787 5785 5782 5779 5776 5773 5770 5767 5764 5760 5757 5754 5751 5747 5745 5743 5739 5735 5729 5723 5718 5713 5708 5703 5699 5694 5691 5688 5686 5686 5686 5687 5687 5689 5691 5693 5696 5699 5701
5783 5782 5781 5779 5777 5775 5772 5769 5766 5763 5760 5757 5754 5750 5747 5744 5741 5737 5735 5732 5729 5725 5719 5713 5707 5702 5697 5691 5686 5681 5678 5675 5672 5672 5672 5673 5674 5676 5678 5681 5684 5686 5688
5773 5772 5771 5769 5767 5765 5762 5759 5756 5753 5750 5747 5744 5741 5737 5734 5731 5727 5724 5721 5718 5714 5709 5703 5697 5691 5685 5680 5675 5670 5666 5663 5661 5660 5660 5661 5662 5664 5667 5669 5671 5674 5676
5763 5762 5760 5759 5757 5754 5752 5749 5746 5743 5740 5737 5734 5731 5728 5724 5721 5717 5714 5711 5707 5704 5699 5693 5688 5682 5676 5670 5665 5660 5656 5653 5651 5651 5650 5651 5652 5653 5656 5658 5660 5662 5665
5752 5751 5750 5748 5746 5744 5741 5739 5736 5733 5730 5727 5724 5721 5718 5715 5711 5708 5704 5700 5696 5692 5688 5683 5678 5672 5667 5661 5656 5651 5648 5645 5644 5642 5642 5642 5643 5644 5645 5648 5650 5651 5653
5742 5741 5739 5737 5736 5733 5731 5729 5726 5723 5721 5718 5715 5712 5708 5705 5702 5698 5694 5690 5686 5682 5678 5673 5668 5663 5658 5653 5648 5644 5641 5638 5636 5635 5635 5634 5634 5635 5636 5638 5639 5641 5642
5731 5730 5729 5727 5725 5723 5721 5719 5717 5714 5711 5708 5705 5702 5699 5696 5692 5689 5685 5681 5677 5673 5669 5664 5660 5655 5650 5646 5641 5638 5634 5632 5630 5628 5627 5626 5626 5626 5627 5628 5628 5629 5630
5721 5720 5719 5717 5716 5714 5712 5710 5707 5705 5702 5699 5696 5693 5690 5687 5683 5679 5676 5672 5668 5664 5660 5656 5651 5647 5643 5638 5635 5632 5628 5626 5623 5621 5619 5618 5618 5618 5618 5618 5618 5618 5618
5711 5710 5709 5708 5706 5704 5703 5701 5698 5696 5693 5690 5687 5684 5681 5678 5674 5670 5667 5663 5659 5655 5651 5647 5643 5639 5635 5631 5628 5625 5622 5619 5616 5614 5612 5611 5610 5609 5608 5608 5607 5606 5606
5701 5700 5699 5698 5697 5695 5694 5692 5690 5687 5685 5682 5679 5676 5672 5669 5665 5662 5658 5654 5651 5647 5643 5639 5635 5631 5627 5624 5620 5617 5614 5611 5609 5606 5604 5602 5600 5599 5597 5596 5595 5594 5593
5692 5691 5690 5690 5688 5687 5685 5683 5681 5679 5676 5673 5670 5667 5664 5660 5657 5653 5649 5646 5642 5638 5634 5630 5626 5623 5619 5615 5612 5609 5606 5603 5600 5598 5594 5592 5590 5588 5586 5584 5582 5580 5578
5683 5683 5682 5681 5680 5679 5677 5675 5673 5671 5668 5665 5662 5659 5656 5652 5648 5644 5641 5637 5633 5629 5625 5622 5618 5614 5610 5607 5603 5600 5596 5593 5590 5587 5583 5580 5578 5575 5572 5570 5567 5565 5563
5675 5675 5674 5673 5672 5671 5669 5667 5665 5663 5660 5657 5654 5651 5647 5644 5640 5636 5632 5628 5624 5620 5616 5613 5609 5605 5601 5597 5593 5589 5585 5582 5578 5575 5571 5568 5564 5561 5558 5555 5552 5549 5547
5667 5667 5666 5665 5664 5663 5661 5659 5657 5655 5652 5649 5646 5643 5639 5635 5632 5627 5624 5620 5616 5611 5607 5603 5599 5595 5590 5586 5582 5578 5574 5570 5566 5562 5558 5554 5550 5546 5542 5539 5535 5532 5530
5659 5659 5658 5658 5656 5655 5654 5652 5650 5647 5644 5641 5638 5635 5631 5627 5623 5619 5615 5610 5606 5602 5598 5594 5589 5585 5580 5575 5571 5567 5562 5558 5553 5549 5544 5540 5535 5530 5527 5523 5519 5515 5513